This is the latest recevied weather packets stored in our database for station/object E22ZMG-1. If no packets are shown the sender has not sent any weather packets the latest 10 day(s).
| Time | Temp. | Humidity | Pressure | Rain* | Wind** | Luminosity | Snow |
|---|---|---|---|---|---|---|---|
| 1777865788 | 39.44° C | 32% | 976 hPa | - | - | 0 W/m² | - |
| 1777865124 | 39.44° C | 32% | 976 hPa | - | - | 0 W/m² | - |
| 1777864498 | 38.89° C | 33% | 976 hPa | - | - | 0 W/m² | - |
| 1777863873 | 38.33° C | 35% | 976 hPa | - | - | 0 W/m² | - |
| 1777863247 | 37.78° C | 36% | 977 hPa | - | - | 0 W/m² | - |
| 1777862623 | 36.67° C | 37% | 977 hPa | - | - | 0 W/m² | - |
| 1777861998 | 36.67° C | 37% | 977 hPa | - | - | 0 W/m² | - |
| 1777861372 | 36.11° C | 39% | 977 hPa | - | - | 0 W/m² | - |
| 1777860746 | 35° C | 41% | 977 hPa | - | - | 0 W/m² | - |
| 1777860121 | 35.56° C | 41% | 977 hPa | - | - | 0 W/m² | - |
| 1777859496 | 35° C | 42% | 977 hPa | - | - | 0 W/m² | - |
| 1777858871 | 33.89° C | 44% | 977 hPa | - | - | 0 W/m² | - |
| 1777858245 | 33.33° C | 45% | 977 hPa | - | - | 0 W/m² | - |
| 1777857618 | 32.22° C | 48% | 977 hPa | - | - | 0 W/m² | - |
| 1777856993 | 32.78° C | 47% | 976 hPa | - | - | 0 W/m² | - |
| 1777856369 | 32.22° C | 47% | 976 hPa | - | - | 0 W/m² | - |
| 1777855744 | 32.22° C | 46% | 976 hPa | - | - | 0 W/m² | - |
| 1777855119 | 32.22° C | 48% | 976 hPa | - | - | 0 W/m² | - |
| 1777854495 | 31.67° C | 49% | 976 hPa | - | - | 0 W/m² | - |
| 1777853870 | 32.22° C | 47% | 976 hPa | - | - | 0 W/m² | - |
| 1777853245 | 31.67° C | 48% | 976 hPa | - | - | 0 W/m² | - |
| 1777852619 | 31.67° C | 50% | 976 hPa | - | - | 0 W/m² | - |
| 1777851993 | 31.11° C | 50% | 976 hPa | - | - | 0 W/m² | - |
| 1777851368 | 30.56° C | 52% | 976 hPa | - | - | 0 W/m² | - |
| 1777850744 | 31.11° C | 50% | 975 hPa | - | - | 0 W/m² | - |
* Rain since midnight (hover to see other rain measurements)
** Current wind speed in m/s (hover to see current wind gust speed)